Location: ????????
(55.6189°N, 38.3031°E)
Time: 22:06:27
(UTC+00:00)

NOSS 3-4 (A) - Pass Details

Date: 15 November 2019
Orbit: 907 x 1306 km, 63.4° (Epoch: 11 December)

Event Time Altitude Azimuth Distance (km) Brightness Sun altitude
Exits shadow 02:32:26 28° 308° (NW) 1,891 4.5 -20.5°
Maximum altitude 02:36:25 87° 221° (SW) 1,123 3.7 -20.0°
Drops below altitude 10° 02:43:55 10° 133° (SE) 3,129 6.9 -18.9°
Sets 02:46:46 0° 133° (SE) 4,142 7.6 -18.5°
